Zurück zum Katalog

SMS 1

AktivWetterGEO
NORAD 7298·PAYLOAD·🇺🇸 United States

Gestartet May 17, 1974 von Cape Canaveral Space Force Station

Loading…

TLE

AktuellSource: Space-Track

Epoche: Sep 14, 2026, 06:59 UTC

1 07298U 74033A   26257.29102439 -.00000168  00000-0  00000-0 0  9991
2 07298   3.9341 244.6165 0014478  75.4237 143.1938  0.98614683120768

Verfolge SMS 1 in Echtzeit mit AllMySat

Download on the App Store